FW8254 Weather Reports


Display with metric or nautical units.
time (UTC)temp
F
wind
direction
speed
MPH
gust
MPH
rain 1hr
in
rain 24hr
in
rain mn
in
humidity
%
barometer
mb
20260506082151 62 50 0.0 0.0 0.00 0.00 0.00 76 1010.5
20260506081649 62 50 0.0 0.0 0.00 0.00 0.00 76 1010.3
20260506081147 62 50 0.0 0.0 0.00 0.00 0.00 76 1010.5
20260506080644 62 50 0.0 0.0 0.00 0.00 0.00 76 1010.7
20260506080140 62 50 0.0 0.0 0.00 0.00 0.00 76 1010.6
20260506073125 62 50 0.0 1.0 0.00 0.00 0.00 75 1010.5
20260506072621 63 41 0.0 0.0 0.00 0.00 0.00 75 1010.6
20260506072119 63 41 0.0 0.0 0.00 0.00 0.00 74 1010.8
20260506071617 63 46 0.0 0.0 0.00 0.00 0.00 74 1010.5
20260506071114 63 46 0.0 1.0 0.00 0.00 0.00 74 1010.3
20260506070611 63 35 0.0 2.0 0.00 0.00 0.00 73 1010.6
20260506070108 64 35 0.0 0.0 0.00 0.00 0.00 73 1010.2
20260506062045 64 52 0.0 1.0 0.00 0.00 0.00 71 1010.1
20260506061541 64 80 2.0 2.0 0.00 0.00 0.00 71 1010.3
20260506061039 65 41 0.0 1.0 0.00 0.00 0.00 71 1010.5
20260506060537 65 57 1.0 3.0 0.00 0.00 0.00 71 1010.6
20260506051006 66 58 1.0 2.0 0.00 0.00 0.00 67 1010.7
20260506050503 66 45 1.0 2.0 0.00 0.00 0.00 67 1011.0
20260506044954 66 56 1.0 3.0 0.00 0.00 0.00 66 1010.9
20260506044452 67 64 1.0 2.0 0.00 0.00 0.00 65 1010.6
20260506043948 67 346 2.0 2.0 0.00 0.00 0.00 65 1010.6
20260506043445 67 72 2.0 2.0 0.00 0.00 0.00 65 1010.7
20260506042943 67 37 2.0 3.0 0.00 0.00 0.00 65 1010.9
20260506042443 67 52 1.0 3.0 0.00 0.00 0.00 64 1010.7
20260506041940 67 54 0.0 1.0 0.00 0.00 0.00 64 1010.8
20260506041438 67 65 2.0 2.0 0.00 0.00 0.00 64 1010.6
20260506040935 68 59 1.0 2.0 0.00 0.00 0.00 64 1010.6
20260506040432 68 59 0.0 2.0 0.00 0.00 0.00 64 1010.7
20260506035928 68 62 1.0 2.0 0.00 0.00 0.00 64 1010.9
20260506035426 68 61 1.0 2.0 0.00 0.00 0.00 64 1010.6
20260506034922 68 52 0.0 2.0 0.00 0.00 0.00 65 1010.6
20260506034420 68 59 0.0 2.0 0.00 0.00 0.00 64 1010.6
20260506033917 68 78 1.0 2.0 0.00 0.00 0.00 64 1010.5
20260506033414 69 47 0.0 2.0 0.00 0.00 0.00 64 1010.4
20260506032911 69 63 3.0 3.0 0.00 0.00 0.00 64 1010.5
20260506032408 69 63 1.0 3.0 0.00 0.00 0.00 64 1010.6
20260506031905 69 79 1.0 2.0 0.00 0.00 0.00 64 1010.5
20260506031402 69 48 0.0 3.0 0.00 0.00 0.00 63 1010.5
20260506030859 69 33 1.0 2.0 0.00 0.00 0.00 64 1010.3
20260506030357 69 91 3.0 3.0 0.00 0.00 0.00 63 1010.4
20260506025854 69 53 0.0 3.0 0.00 0.00 0.00 63 1010.4
20260506025350 70 62 1.0 2.0 0.00 0.00 0.00 63 1010.2
20260506024847 70 55 1.0 2.0 0.00 0.00 0.00 63 1010.2
20260506024344 70 50 1.0 1.0 0.00 0.00 0.00 62 1010.0
20260506023840 70 51 1.0 2.0 0.00 0.00 0.00 62 1010.0
20260506023337 70 56 0.0 1.0 0.00 0.00 0.00 61 1010.1
20260506022834 70 47 0.0 1.0 0.00 0.00 0.00 61 1010.0
20260506022332 71 55 0.0 2.0 0.00 0.00 0.00 60 1009.9
20260506021830 71 52 1.0 2.0 0.00 0.00 0.00 59 1009.9
20260506021326 71 80 2.0 3.0 0.00 0.00 0.00 58 1010.0
20260506020823 71 73 1.0 2.0 0.00 0.00 0.00 57 1010.2
20260506020321 71 59 0.0 2.0 0.00 0.00 0.00 55 1010.1
20260506015818 71 64 1.0 2.0 0.00 0.00 0.00 54 1009.9
20260506015316 71 48 1.0 2.0 0.00 0.00 0.00 54 1010.3
20260506014812 71 51 0.0 2.0 0.00 0.00 0.00 54 1010.1
20260506014309 70 52 0.0 0.0 0.00 0.00 0.00 57 1010.2
20260506013806 71 52 0.0 0.0 0.00 0.00 0.00 58 1009.8
20260506013303 71 52 0.0 0.0 0.00 0.00 0.00 52 1009.8
20260506012759 71 52 0.0 0.0 0.00 0.00 0.00 51 1009.7
20260506012256 71 52 0.0 0.0 0.00 0.00 0.00 50 1009.8
20260506011754 72 52 0.0 0.0 0.00 0.00 0.00 50 1009.4
20260506011250 72 52 0.0 0.0 0.00 0.00 0.00 49 1009.6
20260506010748 72 52 0.0 0.0 0.00 0.00 0.00 48 1009.5
20260506010245 73 52 0.0 0.0 0.00 0.00 0.00 48 1009.6
20260506005743 73 52 0.0 0.0 0.00 0.00 0.00 48 1009.3
20260506005239 73 52 0.0 0.0 0.00 0.00 0.00 48 1009.2
20260506004735 74 52 0.0 0.0 0.00 0.00 0.00 47 1009.4
20260506004233 74 52 0.0 0.0 0.00 0.00 0.00 46 1009.4
20260506003728 74 52 0.0 0.0 0.00 0.00 0.00 46 1009.3
20260506003225 75 52 0.0 0.0 0.00 0.00 0.00 45 1008.9
20260506002721 75 53 0.0 0.0 0.00 0.00 0.00 45 1009.2
20260506002218 75 52 0.0 0.0 0.00 0.00 0.00 44 1008.9
20260506001714 76 52 0.0 0.0 0.00 0.00 0.00 44 1009.0
20260506001211 76 52 0.0 0.0 0.00 0.00 0.00 43 1008.8
20260506000708 77 53 0.0 0.0 0.00 0.00 0.00 42 1008.8
20260506000206 77 53 0.0 0.0 0.00 0.00 0.00 41 1008.5
20260505235703 78 53 0.0 0.0 0.00 0.00 0.00 41 1008.7
20260505235201 78 51 0.0 1.0 0.00 0.00 0.00 40 1008.7
20260505234657 79 46 0.0 1.0 0.00 0.00 0.00 40 1008.8
20260505234154 79 21 1.0 2.0 0.00 0.00 0.00 40 1008.7
20260505233651 79 97 2.0 2.0 0.00 0.00 0.00 39 1008.8
20260505233149 79 335 3.0 5.0 0.00 0.00 0.00 38 1009.0
20260505232646 80 65 1.0 3.0 0.00 0.00 0.00 38 1008.8
20260505232144 80 72 1.0 3.0 0.00 0.00 0.00 38 1008.8
20260505231640 80 307 3.0 3.0 0.00 0.00 0.00 38 1008.7
20260505231139 80 287 3.0 3.0 0.00 0.00 0.00 38 1008.8
20260505230637 80 301 3.0 5.0 0.00 0.00 0.00 37 1009.1
20260505230132 80 25 2.0 5.0 0.00 0.00 0.00 38 1008.9
20260505225629 80 144 2.0 6.0 0.00 0.00 0.00 37 1008.8
20260505225125 80 345 3.0 3.0 0.00 0.00 0.00 38 1009.0
20260505224622 80 259 4.0 7.0 0.00 0.00 0.00 37 1009.1
20260505224120 80 251 4.0 6.0 0.00 0.00 0.00 37 1009.3
20260505223617 80 313 3.0 8.0 0.00 0.00 0.00 38 1008.9
20260505223113 81 296 6.0 7.0 0.00 0.00 0.00 37 1009.0
20260505222609 81 311 5.0 8.0 0.00 0.00 0.00 35 1009.3
20260505222106 81 184 3.0 6.0 0.00 0.00 0.00 36 1009.0
20260505221603 81 330 3.0 6.0 0.00 0.00 0.00 37 1009.1
20260505221059 81 121 3.0 5.0 0.00 0.00 0.00 36 1008.9
20260505220556 81 59 1.0 3.0 0.00 0.00 0.00 36 1009.0
20260505220054 80 76 1.0 3.0 0.00 0.00 0.00 37 1008.9
20260505215552 80 187 3.0 3.0 0.00 0.00 0.00 36 1008.9
20260505215049 80 288 4.0 6.0 0.00 0.00 0.00 37 1009.1
20260505214548 81 277 7.0 8.0 0.00 0.00 0.00 36 1009.0
20260505214044 80 104 2.0 3.0 0.00 0.00 0.00 37 1008.9
20260505213542 79 343 2.0 6.0 0.00 0.00 0.00 38 1009.1
20260505213038 80 307 5.0 8.0 0.00 0.00 0.00 37 1009.1
20260505212534 81 97 2.0 3.0 0.00 0.00 0.00 36 1009.3
20260505212032 80 331 3.0 6.0 0.00 0.00 0.00 38 1009.0
20260505211529 80 219 2.0 6.0 0.00 0.00 0.00 38 1009.4
20260505211025 79 298 5.0 7.0 0.00 0.00 0.00 40 1009.2
20260505210522 79 301 5.0 7.0 0.00 0.00 0.00 38 1009.4
20260505210020 79 321 3.0 5.0 0.00 0.00 0.00 39 1009.5
20260505205518 79 357 2.0 5.0 0.00 0.00 0.00 40 1009.3
20260505205014 79 327 3.0 5.0 0.00 0.00 0.00 41 1009.4
20260505204512 79 59 1.0 2.0 0.00 0.00 0.00 39 1009.4
20260505204009 79 271 3.0 8.0 0.00 0.00 0.00 41 1009.6
20260505203506 79 319 3.0 5.0 0.00 0.00 0.00 39 1009.7
20260505203002 79 274 6.0 7.0 0.00 0.00 0.00 40 1009.8
20260505202459 79 289 4.0 5.0 0.00 0.00 0.00 39 1009.5
20260505201954 79 330 4.0 7.0 0.00 0.00 0.00 43 1009.6
20260505201452 80 289 3.0 7.0 0.00 0.00 0.00 39 1009.7
20260505200949 81 296 7.0 10.0 0.00 0.00 0.00 39 1009.8
20260505200447 80 46 0.0 3.0 0.00 0.00 0.00 36 1009.8
20260505195942 80 358 2.0 5.0 0.00 0.00 0.00 37 1009.9
20260505195440 82 17 3.0 6.0 0.00 0.00 0.00 36 1010.2
20260505194937 82 309 5.0 6.0 0.00 0.00 0.00 36 1010.0
20260505194434 81 6 1.0 3.0 0.00 0.00 0.00 36 1010.1
20260505193934 79 356 3.0 6.0 0.00 0.00 0.00 38 1010.3
20260505193432 80 331 3.0 6.0 0.00 0.00 0.00 38 1010.3
20260505192930 79 330 2.0 3.0 0.00 0.00 0.00 39 1010.5
20260505192428 80 195 2.0 6.0 0.00 0.00 0.00 38 1010.6
20260505191925 80 272 4.0 5.0 0.00 0.00 0.00 38 1010.5
20260505191424 79 62 2.0 5.0 0.00 0.00 0.00 39 1010.6
20260505190920 79 272 4.0 7.0 0.00 0.00 0.00 39 1010.7
20260505190415 79 274 6.0 7.0 0.00 0.00 0.00 39 1010.5
20260505185911 78 250 7.0 8.0 0.00 0.00 0.00 39 1010.8
20260505185409 79 291 7.0 8.0 0.00 0.00 0.00 39 1010.8
20260505184904 79 243 6.0 7.0 0.00 0.00 0.00 38 1010.7
20260505184401 78 337 3.0 5.0 0.00 0.00 0.00 38 1011.2
20260505183858 80 286 4.0 6.0 0.00 0.00 0.00 38 1011.3
20260505183355 78 292 6.0 7.0 0.00 0.00 0.00 40 1011.5
20260505182852 79 279 12.0 15.0 0.00 0.00 0.00 39 1011.5
20260505182349 78 90 3.0 5.0 0.00 0.00 0.00 39 1011.6
20260505181845 79 48 3.0 6.0 0.00 0.00 0.00 38 1011.9
20260505181343 79 288 4.0 6.0 0.00 0.00 0.00 37 1011.9
20260505180839 78 117 2.0 7.0 0.00 0.00 0.00 37 1011.9
20260505180336 77 296 5.0 6.0 0.00 0.00 0.00 38 1012.0
20260505175832 77 289 4.0 10.0 0.00 0.00 0.00 38 1011.9
20260505175329 79 315 3.0 3.0 0.00 0.00 0.00 40 1011.5
20260505174825 78 209 4.0 10.0 0.00 0.00 0.00 42 1011.9
20260505174323 77 306 5.0 8.0 0.00 0.00 0.00 40 1011.6
20260505173819 77 283 6.0 8.0 0.00 0.00 0.00 41 1011.6
20260505173315 77 231 5.0 6.0 0.00 0.00 0.00 38 1011.7
20260505172813 77 299 3.0 8.0 0.00 0.00 0.00 40 1011.9
20260505172310 77 295 5.0 8.0 0.00 0.00 0.00 42 1011.7
20260505171804 78 61 2.0 5.0 0.00 0.00 0.00 38 1011.8
20260505171301 77 290 4.0 5.0 0.00 0.00 0.00 41 1011.8
20260505170758 76 343 3.0 3.0 0.00 0.00 0.00 42 1011.7
20260505170255 77 282 3.0 7.0 0.00 0.00 0.00 41 1012.1
20260505165755 78 68 1.0 3.0 0.00 0.00 0.00 39 1012.1
20260505165251 78 51 0.0 3.0 0.00 0.00 0.00 41 1011.9
20260505164747 76 91 3.0 5.0 0.00 0.00 0.00 42 1012.2
20260505164245 77 296 6.0 7.0 0.00 0.00 0.00 42 1012.1
20260505163743 76 35 1.0 3.0 0.00 0.00 0.00 43 1012.3
20260505163241 75 30 0.0 3.0 0.00 0.00 0.00 45 1012.3
20260505162738 76 294 6.0 7.0 0.00 0.00 0.00 46 1012.4
20260505162235 76 57 1.0 3.0 0.00 0.00 0.00 45 1012.6
20260505161732 75 343 5.0 5.0 0.00 0.00 0.00 44 1012.5
20260505161230 76 229 5.0 8.0 0.00 0.00 0.00 46 1012.6
20260505160727 75 41 1.0 6.0 0.00 0.00 0.00 48 1012.6
20260505160225 75 306 4.0 5.0 0.00 0.00 0.00 51 1012.5
20260505153203 73 2 1.0 2.0 0.00 0.00 0.00 55 1012.9
20260505152700 73 288 4.0 6.0 0.00 0.00 0.00 55 1013.1
20260505152156 73 17 1.0 3.0 0.00 0.00 0.00 57 1013.1
20260505151651 73 8 1.0 5.0 0.00 0.00 0.00 56 1013.0
20260505151149 72 321 3.0 5.0 0.00 0.00 0.00 58 1012.9
20260505150645 72 289 3.0 6.0 0.00 0.00 0.00 58 1012.9
20260505150142 72 283 4.0 6.0 0.00 0.00 0.00 59 1013.2
20260505140611 69 54 1.0 3.0 0.00 0.00 0.00 66 1012.9
20260505140108 69 298 7.0 8.0 0.00 0.00 0.00 67 1012.6
20260505125024 63 261 3.0 5.0 0.00 0.00 0.00 74 1013.3
20260505124521 62 262 4.0 6.0 0.00 0.00 0.00 76 1013.1
20260505124017 62 302 4.0 5.0 0.00 0.00 0.00 76 1013.1
20260505123514 61 343 3.0 5.0 0.00 0.00 0.00 77 1012.9
20260505123010 60 6 1.0 2.0 0.00 0.00 0.00 78 1012.8
20260505122507 60 31 0.0 1.0 0.00 0.00 0.00 79 1013.0
20260505122004 59 23 0.0 1.0 0.00 0.00 0.00 79 1012.9
20260505121501 59 34 0.0 0.0 0.00 0.00 0.00 80 1012.5
20260505120957 58 25 1.0 1.0 0.00 0.00 0.00 80 1012.7
20260505120453 58 5 2.0 2.0 0.00 0.00 0.00 81 1012.4
20260505115952 57 49 0.0 1.0 0.00 0.00 0.00 82 1012.8
20260505115449 57 49 0.0 0.0 0.00 0.00 0.00 83 1012.6
20260505114947 57 49 0.0 0.0 0.00 0.00 0.00 83 1012.7
20260505114443 56 48 0.0 0.0 0.00 0.00 0.00 84 1012.6
20260505113940 56 49 0.0 0.0 0.00 0.00 0.00 84 1012.6
20260505113436 56 49 0.0 0.0 0.00 0.00 0.00 85 1012.5
20260505112932 56 49 0.0 0.0 0.00 0.00 0.00 85 1012.6
20260505112430 56 49 0.0 0.0 0.00 0.00 0.00 85 1012.8
20260505111926 56 49 0.0 0.0 0.00 0.00 0.00 85 1012.6
20260505111420 56 49 0.0 0.0 0.00 0.00 0.00 85 1012.4
20260505110917 56 49 0.0 0.0 0.00 0.00 0.00 85 1012.5
20260505110414 56 49 0.0 0.0 0.00 0.00 0.00 85 1012.4
20260505101845 56 39 0.0 0.0 0.00 0.00 0.00 81 1011.7
20260505101339 56 39 0.0 0.0 0.00 0.00 0.00 81 1012.0
20260505100836 56 39 0.0 1.0 0.00 0.00 0.00 81 1011.8
20260505100333 56 38 1.0 1.0 0.00 0.00 0.00 81 1011.7
20260505095828 56 35 1.0 1.0 0.00 0.00 0.00 81 1011.7
20260505095326 56 34 0.0 1.0 0.00 0.00 0.00 81 1011.7
20260505094821 56 34 1.0 1.0 0.00 0.00 0.00 81 1011.7
20260505094319 56 33 0.0 1.0 0.00 0.00 0.00 81 1011.8
20260505093814 56 29 0.0 0.0 0.00 0.00 0.00 80 1011.7
20260505093312 56 29 0.0 0.0 0.00 0.00 0.00 80 1011.4
20260505092808 56 29 0.0 0.0 0.00 0.00 0.00 79 1011.7
20260505092307 56 29 0.0 0.0 0.00 0.00 0.00 79 1011.4
20260505091804 56 29 0.0 0.0 0.00 0.00 0.00 78 1011.5
20260505091302 57 29 0.0 0.0 0.00 0.00 0.00 78 1011.6
20260505090800 57 29 0.0 0.0 0.00 0.00 0.00 77 1011.5
20260505090258 57 29 0.0 0.0 0.00 0.00 0.00 77 1011.2
20260505085755 57 29 0.0 0.0 0.00 0.00 0.00 77 1011.4
20260505085253 57 29 0.0 0.0 0.00 0.00 0.00 77 1011.4
20260505084750 57 29 0.0 0.0 0.00 0.00 0.00 76 1011.4
20260505084249 57 29 0.0 0.0 0.00 0.00 0.00 76 1011.6
20260505083745 57 29 0.0 0.0 0.00 0.00 0.00 75 1011.4
20260505083242 58 29 0.0 0.0 0.00 0.00 0.00 75 1011.5
20260505082739 58 29 0.0 0.0 0.00 0.00 0.00 74 1011.6